Location: Casteau
(50.5142°N, 4.0161°E)
Time: 04:56:00
(UTC+00:00)

Okean 1 Rocket - Pass Details

Date: 18 September 2020
Orbit: 605 x 635 km, 82.5° (Epoch: 29 October)

Event Time Altitude Azimuth Distance (km) Brightness Sun altitude
Exits shadow 19:51:19 43° 135° (SE) 898 3.4 -19.3°
Maximum altitude 19:52:17 52° 94° (E) 799 3.2 -19.4°
Drops below altitude 10° 19:56:40 10° 19° (NNE) 2,035 5.8 -20.0°
Sets 19:58:58 0° 15° (NNE) 2,949 6.7 -20.4°
